Regional Weather Roundup
Issued by NWS Jackson, KY

Home | Current Version | Previous Version | Graphics & Text | Print | Product List | Glossary On
Versions: 1 2 3 4 5 6 7 8 9 10 11 12 13 14 15 16 17 18 19 20 21 22 23 24 25 26 27 28 29 30 31 32 33 34 35 36 37 38 39 40 41 42 43 44 45 46 47 48 49 50
000
ASUS43 KJKL 210410
RWRJKL

EAST KENTUCKY HOURLY WEATHER ROUNDUP
NATIONAL WEATHER SERVICE JACKSON KY
1200 AM EDT MON APR 21 2014

NOTE: "FAIR" INDICATES FEW OR NO CLOUDS BELOW 12,000 FEET WITH
NO SIGNIFICANT WEATHER AND/OR OBSTRUCTIONS TO VISIBILITY.

* THESE REPORTS ARE NOT UNDER NWS QUALITY CONTROL AND MAY NOT
  REPORT WEATHER SUCH AS PRECIPITATION AND FOG.

KYZ079-080-083-085-087-088-110-112-115-119-120-210500
...EASTERN KENTUCKY...

CITY           SKY/WX    TMP DP  RH WIND       PRES   REMARKS
JACKSON        PTCLDY    67  25  20 VRB3      30.14S
LONDON         PTCLDY    56  44  64 CALM      30.14S
SOMERSET*      PTCLDY    55  41  58 CALM      30.14S
MONTICELLO*    CLEAR     54  44  68 CALM      30.15S
MIDDLESBORO*   PTCLDY    51  42  71 CALM      30.16S
HARLAN APT*    PTCLDY    55  37  50 CALM      30.16S
BLACK MTN*       N/A     55  25  30 S3          N/A
PIKEVILLE APT* CLEAR     64  28  25 SE5       30.14S
BIG SANDY*     MOCLDY    62  30  30 SE5       30.14S
MOREHEAD APT*  PTCLDY    64  39  39 MISG      30.15F
$$

KYZ035-036-041-042-044-050-067-078-099-210500
...CENTRAL KENTUCKY...

CITY           SKY/WX    TMP DP  RH WIND       PRES   REMARKS
MT STERLING*   PTCLDY    52  46  82 CALM      30.15S
FLEMING/MASON* CLEAR     57  43  58 CALM      30.14S
DANVILLE*      PTCLDY    54  45  71 CALM      30.14F
LEXINGTON      PTCLDY    58  46  64 SE3       30.13S
FRANKFORT      PTCLDY    52  44  74 CALM      30.11F
$$

KYZ091>093-OHZ055-061-077-WVZ005-015-034-035-042-210500
...SOUTHERN OHIO/WEST VIRGINIA...

CITY           SKY/WX    TMP DP  RH WIND       PRES   REMARKS
COVINGTON      CLEAR     57  40  52 CALM      30.11F
COLUMBUS       PTCLDY    60  41  49 CALM      30.11F
DAYTON         PTCLDY    59  37  44 CALM      30.12F
WILMINGTON     PTCLDY    55  43  63 CALM      30.12F
HUNTINGTON     MOCLDY    60  32  34 CALM      30.11F
CHARLESTON     PTCLDY    58  32  37 CALM      30.13F
PINEVILLE*     CLEAR     50  38  62 MISG      30.24S
BECKLEY        CLEAR     54  26  34 SE9       30.21F
BLUEFIELD      CLEAR     55  27  34 SE8G17    30.23F
$$

VAZ002-007-008-TNZ017-027-036-066-071-210500
...SOUTHWEST VIRGINIA/EAST TENNESSEE...

CITY           SKY/WX    TMP DP  RH WIND       PRES   REMARKS
WISE*          PTCLDY    59  23  25 S6        30.21R
ABINGDON*      CLEAR     57  28  32 E10       30.19F
BRISTOL        PTCLDY    59  26  28 E6        30.18S
KNOXVILLE      PTCLDY    56  39  53 CALM      30.13
OAK RIDGE      PTCLDY    56  46  69 CALM      30.15S
CROSSVILLE     MOCLDY    57  40  52 CALM      30.18S
NASHVILLE      PTCLDY    61  48  62 S3        30.12S
$$

...KEY TO REMARKS...
VSB - VISIBILITY IN MILES
WCI - WIND CHILL INDEX
HX  - HEAT INDEX

$$



USA.gov is the U.S. government's official web portal to all federal, state and local government web resources and services.